Regional Weather Roundup
Issued by NWS Charleston, SC

Current Version | Previous Version | Graphics & Text | Print | Product List | Glossary On
Versions: 1 2 3 4 5 6 7 8 9 10 11 12 13 14 15 16 17 18 19 20 21 22 23 24 25 26 27 28 29 30 31 32 33 34 35 36 37 38 39 40 41 42 43 44 45 46 47 48 49 50
000
ASUS42 KCHS 221112
RWRCHS

REGIONAL WEATHER ROUNDUP
NATIONAL WEATHER SERVICE CHARLESTON SC
700 AM EDT SUN OCT 22 2017

NOTE: "FAIR" INDICATES FEW OR NO CLOUDS BELOW 12,000 FEET WITH NO
SIGNIFICANT WEATHER AND/OR OBSTRUCTIONS TO VISIBILITY.

NOT ALL STATIONS ARE QUALITY CONTROLLED. USE DATA WITH CAUTION...
ESPECIALLY DEWPOINT OBSERVATIONS.

SCZ027-030-031-034>040-042>050-221200-
...SOUTHEAST SOUTH CAROLINA...

CITY           SKY/WX    TMP DP  RH WIND       PRES   REMARKS
N CHARLESTON   CLOUDY    67  66  97 NE10      30.25S
WATERFRONT PRK NOT AVBL
JOHNS ISLAND   CLOUDY    68  66  94 CALM      30.25R
PINOPOLIS        N/A     66  66 100 E6        30.18R
MONCKS CORNER  FAIR      63  61  94 NE5       30.27R
SUMMERVILLE    FAIR      63  61  94 CALM      30.27S
BEAUFORT MCAS  PTCLDY    68  66  93 MISG      30.24R
BEAUFORT ARPT  CLOUDY    68  64  88 NE7       30.23S
HILTON HEAD IS MOCLDY    72  66  83 N9        30.24R
WALTERBORO     MOSUNNY   64  63  94 NE7       30.27R
ALLENDALE        N/A     63  63 100 CALM        N/A

...SOUTHERN MIDLANDS AND PEE DEE...

CITY           SKY/WX    TMP DP  RH WIND       PRES   REMARKS
GEORGETOWN     FAIR      63  63 100 CALM      30.29R
KINGSTREE      FAIR      61  61 100 CALM      30.29R
ORANGEBURG     PTCLDY    62  61  96 NE6       30.28S
BARNWELL         N/A     64  63  94 NE5       30.27R
AIKEN          FAIR      55  55 100 NE5       30.30F
MANNING        FAIR      61  59  94 MISG      30.29R
COLUMBIA       PTCLDY    54  53  97 CALM      30.28S
SUMTER         CLOUDY    58  57  95 NE7       30.27S
FLORENCE       MOCLDY    58  58 100 CALM      30.31R FOG
MYRTLE BEACH   MOCLDY    65  63  93 NE6       30.30R
N MYRTLE BEACH MOCLDY    62  61  96 NE5       30.29R

$$

GAZ063-065-086>088-099>101-113>116-118-119-134>141-150-221200-
...SOUTHEAST GEORGIA...

CITY           SKY/WX    TMP DP  RH WIND       PRES   REMARKS
SAVANNAH ARPT  CLOUDY    68  66  93 NE7       30.23R
HUNTER AAF     CLOUDY    69  67  92 NE7       30.19S
FORT STEWART   CLOUDY    67  66  94 N7        30.20R
STATESBORO     PTCLDY    65  64  97 CALM      30.25R
SYLVANIA       PTSUNNY   64  64 100 CALM      30.26R
CLAXTON        PTSUNNY   66  65  96 NE3       30.24R

...CSRA...CENTRAL AND FAR SOUTHEAST GEORGIA...

CITY           SKY/WX    TMP DP  RH WIND       PRES   REMARKS
THOMSON        CLEAR     53  51  95 SE3       30.31S
AUGUSTA-BUSH   CLEAR     57  55  93 NW3       30.26S
AUGUSTA-DANIEL CLEAR     66  62  87 E7        30.27S
SWAINSBORO     PTSUNNY   64  64 100 MISG      30.24S
VIDALIA        PTCLDY    64  64 100 NE5       30.22F
EASTMAN        CLOUDY   N/A N/A N/A E6        30.24R
HAZLEHURST     FAIR      67  65  94 E6        30.20S
ALMA           MOCLDY    69  66  90 CALM      30.19S
WAYCROSS       PTCLDY    68  65  90 E5        30.19S
JESUP          PTSUNNY   70  66  88 NE5       30.21R
BAXLEY         FAIR      64  64 100 E7        30.20S
BRUNSWICK      CLOUDY    70  66  88 N3        30.20R
SAINT SIMONS   CLOUDY    76  68  76 E8        30.19R

$$

SCZ027-028-034-036>038-045-046-048>050-GAZ119-141-221200-
...LAKE AND SUPPLEMENTAL COASTAL OBSERVATIONS...

STATION/POSITION TIME  TEMP    WIND        PRES    WAVE   SWELL
                       AIR SEA DIR/SP/G            HT/PER HT/PER/DIR
                 (UTC) (F)     (DEG/KT/KT) (MB)    (FT/S) (FT/S/D)
WINYAH BAY       NOT AVBL
LAKE MURRAY      1020   61      40/  2/  3 1025.1S
ACE BASIN NERRS  0945   66      10/  1     1024.0
FORT PULASKI     1042   72 74   40/  9/ 12 1023.5R
SAPELO ISLAND    NOT AVBL

$$

ANZ835-935-AMZ111-154-330-350-352-354-370-450-454-472-221200-
...C-MAN AND BUOY OBSERVATIONS...

STATION/POSITION TIME  TEMP    WIND        PRES    WAVE   SWELL
                       AIR SEA DIR/SP/G            HT/PER HT/PER/DIR
                 (UTC) (F)     (DEG/KT/KT) (MB)    (FT/S) (FT/S/D)
BUOY 41004       1050   78 79   90/ 12/ 16 1023.5R   4/ 8   3/110/ 8
BUOY 41008       1050   77 77  110/ 10/ 12 1021.9R   5/ 6   5/130/ 6
FOLLY BEACH CMAN 1000   72      30/ 10/ 12 1024.5R
CAPERS NEARSHORE 1008   72 73   80/ 10/ 14 1023.8R
FRIPP NEARSHORE  1008   76      80/  8/ 10   N/A


STATION/POSITION TIME  TEMP    WIND        PRES    WAVE   SWELL
                       AIR SEA DIR/SP/G            HT/PER HT/PER/DIR
                 (UTC) (F)     (DEG/KT/KT) (MB)    (FT/S) (FT/S/D)
5E ST. MARYS GA  1030      77                N/A     5/ 7
FRYING PAN BUOY  1050   76 76  100/ 10/ 12 1025.1R   3/ 8   3/100/ 8
BUOY 41025       1050   75 81   70/  6/ 10 1026.6R   3/ 8   3/120/ 8
CAPE LOOKOUT NC  1000   67      10/  7/  8 1026.1R
BUOY 41002       1050   76 80   90/ 14/ 16 1024.7R   4/ 8   3/ 90/ 8
BUOY 41010       NOT AVBL
ST AUGUSTINE FL  1100   78 77  100/ 12/ 13 1021.2R


$$




USA.gov is the U.S. government's official web portal to all federal, state and local government web resources and services.